Flag for U.S.A. Weather past 2 weeks in Washington DC, District of Columbia, U.S.A.

Now
79 °F

Partly sunny.


Feels Like: 80 °F
Forecast: 52 / 84 °F
Wind: 9 mph from South

Location: Reagan National Airport

Current Time: May 24, 2015 at 2:14:18 PM

Latest Report: May 24, 2015 at 1:52 PM


Visibility: 10 mi

Pressure: 30.32 "Hg

Humidity: 50%

Dew point: 59 °F

Location of Washington DCLocation

Historic Weather in Washington DC — Graph

°F

Washington DC temperature yesterday

Maximum temperature yesterday: 75 °F (at 3:52 PM)
Minimum temperature yesterday: 55 °F (at 5:52 AM)
Average temperature yesterday: 65 °F

Past Weeks' High & Low Weather Summary

 TemperatureHumidityPressure
High89 °F (May 12, 3:52 PM)91% (May 18, 11:52 PM)30.47 "Hg (May 18, 11:52 PM)
Low53 °F (May 21, 1:52 PM)22% (May 23, 2:52 PM)29.83 "Hg (May 19, 6:52 PM)
Average71 °F59%30.13 "Hg
* Reported May 9 12:52 PM — May 24 12:52 PM, Washington DC, Weather by CustomWeather, © 2015

Note: Actual official high and low records may vary slightly from our data, if they occured in-between our weather recording intervals... More about our weather records

Advertising

Washington DC weather history for previous 24 hours

 ConditionsComfort  
Time TempWeatherWind HumidityBarometerVisibility
12:52 PM
Sun, May 24
77 °FPartly sunny.9 mph52%30.35 "Hg10 mi
11:52 AM74 °FScattered clouds.8 mph56%30.35 "Hg10 mi
10:52 AM71 °FScattered clouds.8 mph59%30.38 "Hg10 mi
9:52 AM68 °FPassing clouds.9 mph63%30.39 "Hg10 mi
8:52 AM66 °FSunny.7 mph63%30.40 "Hg10 mi
7:52 AM63 °FScattered clouds.8 mph68%30.40 "Hg10 mi
6:52 AM60 °FScattered clouds.5 mph72%30.40 "Hg10 mi
5:52 AM58 °FPassing clouds.5 mph75%30.39 "Hg10 mi
4:52 AM58 °FPassing clouds.3 mph67%30.38 "Hg10 mi
3:52 AM59 °FPassing clouds.3 mph60%30.38 "Hg10 mi
2:52 AM60 °FPassing clouds.7 mph58%30.38 "Hg10 mi
1:52 AM61 °FClear.10 mph54%30.38 "Hg10 mi
12:52 AM61 °FClear.9 mph56%30.39 "Hg10 mi
11:52 PM
Sat, May 23
63 °FClear.9 mph56%30.39 "Hg10 mi
10:52 PM64 °FClear.9 mph52%30.39 "Hg10 mi
9:52 PM66 °FClear.7 mph47%30.38 "Hg10 mi
8:52 PM68 °FPassing clouds.7 mph38%30.37 "Hg10 mi
7:52 PM70 °FSunny.8 mph37%30.37 "Hg10 mi
6:52 PM72 °FSunny.8 mph31%30.37 "Hg10 mi
5:52 PM73 °FPassing clouds.8 mph32%30.37 "Hg10 mi
4:52 PM73 °FSunny.12 mph32%30.39 "Hg10 mi
3:52 PM75 °FPassing clouds.6 mph23%30.40 "Hg10 mi
2:52 PM74 °FPassing clouds.7 mph22%30.42 "Hg10 mi
Weather by CustomWeather, © 2015

See weather overviewHow to use our weather pages